Theta_e
278 278 278 277 277 278 276 276 276 275 275 275 275 274 274 274 274 273 273 273 273 273 273 272 272 272 272 272 273 272 272 271 272 272 272 272 272 273 272 272 271 271 271 271 271 271 271 271 271 272 272 272 272 273 275 277 278 279 280 283 285 287
278 277 277 277 277 276 276 275 275 275 275 274 274 274 273 273 273 273 272 272 272 272 272 272 272 272 272 272 272 271 271 271 271 272 271 272 272 272 272 271 271 271 271 271 270 270 271 271 271 271 271 272 272 274 275 276 278 279 280 282 284 286
277 276 276 276 275 275 276 275 275 275 274 273 273 273 272 272 272 272 272 272 271 271 270 270 271 271 271 271 271 271 271 271 272 271 272 272 271 271 271 271 271 271 271 270 270 270 270 270 270 271 271 271 272 273 273 275 276 278 279 281 284 286
277 276 275 275 274 274 274 274 274 274 273 273 273 272 272 271 271 271 271 271 271 270 270 270 270 270 270 270 270 270 270 271 271 271 271 271 271 271 271 271 271 271 270 270 269 270 270 270 270 270 271 270 270 270 272 273 274 276 278 281 282 284
277 277 276 275 274 274 273 273 273 273 272 272 272 271 271 271 271 271 271 270 270 269 270 269 269 269 269 269 269 270 270 270 270 271 270 270 271 271 271 271 271 270 270 269 269 269 269 270 270 270 270 270 270 270 271 273 274 276 277 278 279 281
276 276 275 275 274 274 274 273 273 273 272 272 271 271 270 270 270 270 270 269 269 269 269 268 269 269 269 269 269 269 270 270 270 270 270 270 270 270 270 270 270 270 269 269 269 269 269 270 270 271 271 271 271 271 271 273 275 276 277 277 279 280
275 276 275 275 274 273 273 273 273 272 272 271 271 270 270 270 270 269 269 268 268 268 268 268 268 268 268 268 269 269 269 269 269 270 269 269 269 269 269 269 269 268 268 268 268 268 269 269 270 270 271 272 273 273 273 273 274 275 276 277 278 280
275 274 274 274 273 273 272 272 272 271 271 270 270 269 269 269 269 269 268 268 267 267 267 267 267 267 268 268 268 268 269 269 269 268 268 268 267 268 268 267 267 268 267 268 268 268 269 269 269 269 270 270 270 271 271 271 272 273 274 276 277 279
274 274 273 273 273 272 271 271 270 270 270 269 269 269 268 268 268 268 267 266 266 266 266 266 267 267 267 267 268 268 268 268 268 267 267 267 267 266 266 266 266 267 267 267 268 268 268 268 269 269 269 270 270 271 271 271 272 272 273 275 277 279
274 273 272 272 272 271 271 270 270 269 268 268 268 268 268 268 267 266 266 265 265 265 266 266 267 267 267 267 268 268 267 267 267 266 266 266 266 266 265 265 265 266 266 267 267 268 268 268 268 269 269 270 270 270 270 270 272 273 274 275 277 279
273 273 272 272 271 270 269 268 268 268 268 268 267 267 267 267 266 265 265 265 265 265 266 266 266 267 267 267 267 266 265 265 265 265 265 265 265 265 265 265 265 265 265 266 267 267 268 268 268 269 269 269 270 270 270 270 271 272 274 275 276 278
273 272 271 270 270 268 268 268 268 268 267 267 267 266 266 265 264 264 264 264 264 265 265 266 266 266 266 265 264 264 264 264 264 264 264 264 264 264 265 265 265 265 265 265 266 267 268 268 269 271 274 274 272 272 272 272 272 273 273 274 275 277
272 271 270 269 268 267 267 267 267 266 266 266 266 265 265 264 263 263 263 263 264 265 265 265 265 265 264 264 263 263 262 263 262 262 263 263 263 263 264 264 264 265 265 265 266 267 268 268 269 273 275 276 277 274 273 274 275 275 276 276 276 277
272 270 269 268 267 266 266 265 265 264 264 265 265 264 264 263 263 262 263 263 264 264 264 264 264 263 262 262 261 261 261 262 261 261 262 262 263 263 264 264 264 265 266 266 267 267 268 268 272 274 275 276 277 277 274 273 273 273 273 275 276 277
272 270 268 267 266 266 265 265 264 264 264 263 264 263 262 262 262 262 262 262 263 263 263 262 262 261 261 261 261 261 261 261 261 261 262 262 263 264 264 264 264 265 266 266 267 267 268 268 272 274 276 276 277 277 276 273 273 273 273 274 275 278
271 269 268 267 266 266 265 265 264 263 263 263 262 262 262 261 261 261 261 262 262 262 262 261 260 260 260 260 260 260 260 261 261 262 263 263 264 264 264 264 264 265 266 267 267 267 268 269 272 275 276 276 277 277 277 274 273 274 274 274 276 278
270 268 267 266 265 265 264 263 263 262 262 262 261 261 261 260 260 260 261 261 261 261 260 260 259 259 259 259 260 260 260 261 261 262 263 264 264 264 264 264 265 266 266 267 268 268 268 269 274 276 276 277 277 277 277 274 274 274 274 275 276 278
269 267 266 266 264 264 263 262 262 261 260 261 260 260 260 260 259 259 260 259 259 259 259 259 258 258 258 259 259 259 260 261 262 262 263 263 264 264 264 264 265 265 266 267 268 268 268 269 275 276 277 277 277 278 275 274 274 274 274 276 277 278
267 266 265 264 263 262 262 261 260 260 259 259 259 259 259 259 258 259 259 258 258 258 258 258 258 257 258 258 258 259 260 261 262 262 263 263 263 263 263 263 264 265 266 266 267 268 269 269 273 276 276 277 277 277 274 274 273 274 274 275 277 279
265 265 264 263 262 261 261 260 259 259 258 258 258 257 258 257 258 258 258 257 257 257 257 257 257 257 257 258 258 259 261 262 262 262 263 262 261 261 262 263 263 265 266 266 267 268 268 270 273 276 277 277 278 277 274 273 273 273 274 276 278 279
264 264 263 262 260 260 260 259 258 257 257 257 257 257 257 257 257 257 257 257 257 257 257 257 257 257 257 258 259 260 260 261 261 262 262 262 261 261 262 263 263 264 265 266 268 271 271 271 273 276 277 278 278 277 275 274 273 272 273 275 276 278
263 262 261 260 260 259 259 258 257 256 257 256 256 256 256 256 257 257 257 257 256 256 256 256 256 257 257 258 259 260 261 261 261 261 261 261 261 261 262 263 263 263 265 266 268 269 270 271 272 274 277 277 278 279 276 275 273 272 273 274 276 277
262 261 261 260 259 259 258 257 256 256 256 256 256 255 256 256 257 256 256 256 255 255 255 256 257 257 258 259 259 260 260 261 261 261 260 260 260 261 261 262 263 264 265 266 267 269 270 271 272 274 277 278 279 279 279 276 275 274 274 275 276 277
261 260 260 259 259 258 257 256 255 255 255 255 255 255 256 256 256 255 255 254 254 254 255 255 256 258 258 259 259 259 259 260 260 260 260 260 260 260 261 262 263 263 264 266 268 269 270 272 274 272 275 277 279 281 281 277 276 277 276 276 277 277
260 259 259 258 258 258 258 255 255 254 254 254 255 256 256 255 255 254 254 253 253 254 254 255 256 257 258 259 259 258 258 259 259 259 259 260 260 261 261 262 262 263 264 266 267 269 270 271 271 274 273 276 278 280 280 281 280 281 279 277 277 278
259 258 258 258 257 257 257 255 254 254 253 254 255 256 255 254 254 253 252 252 253 253 254 255 256 257 258 258 258 258 258 258 258 259 259 260 261 261 261 261 262 264 264 265 266 268 269 269 270 272 274 274 277 279 280 281 282 283 280 279 279 280
258 257 257 257 256 256 255 255 253 253 253 255 255 254 254 253 252 251 251 251 252 253 254 255 256 257 257 258 258 257 257 257 258 258 259 260 261 261 261 261 263 264 264 265 266 267 267 268 269 270 272 275 276 278 279 280 281 282 284 282 281 281
256 256 255 256 256 256 255 254 254 251 253 254 254 254 253 251 250 250 250 251 252 252 254 255 256 257 257 257 257 257 257 257 257 258 259 260 261 261 261 262 264 264 264 265 266 266 266 267 268 269 270 272 274 276 277 279 280 281 282 283 283 284
255 255 255 254 255 255 255 253 254 254 254 253 254 253 251 249 249 250 250 250 251 252 254 255 256 256 256 256 257 257 257 257 257 258 259 260 261 261 262 264 263 263 264 265 265 265 266 266 267 268 270 271 273 274 275 276 277 280 281 282 284 284
256 255 255 255 255 255 254 253 253 252 252 252 252 250 248 248 249 249 249 250 251 253 254 255 257 256 255 256 256 256 256 257 257 258 259 260 261 262 263 264 264 263 264 265 265 264 265 265 267 268 270 271 272 273 274 275 276 277 279 281 284 285
255 255 255 255 255 254 253 252 252 251 252 253 250 249 247 249 249 249 249 251 252 252 255 255 255 255 255 255 255 256 257 256 258 259 260 262 264 265 265 264 264 265 265 266 265 264 264 265 266 268 274 273 275 274 274 274 275 277 279 281 284 285
255 255 254 255 254 253 252 251 251 251 253 251 250 248 247 248 248 248 249 251 251 252 254 254 254 254 255 254 255 255 256 260 264 263 261 262 267 270 271 270 265 266 267 266 266 266 265 265 267 274 275 275 275 276 277 278 280 282 281 282 284 285
255 254 254 254 253 252 251 251 251 250 251 252 251 250 247 247 247 248 249 250 250 253 254 254 254 254 254 254 255 255 255 255 257 262 265 267 267 268 270 270 270 271 271 268 266 267 271 271 273 274 274 274 275 275 276 277 278 281 284 285 284 284
254 254 254 254 252 251 250 250 250 249 249 249 249 249 247 247 247 247 248 250 251 253 254 254 254 254 253 254 255 254 254 254 254 255 261 265 266 267 268 269 269 269 270 271 270 268 265 268 271 273 273 273 273 274 274 274 275 277 279 284 287 284
255 254 254 252 251 250 250 248 248 248 249 249 248 248 246 246 246 246 248 249 251 253 254 254 253 253 253 253 253 253 254 253 253 252 253 256 263 265 266 267 268 268 269 270 271 271 270 269 270 271 272 272 272 272 272 272 273 274 275 274 274 278
254 253 253 251 250 249 249 250 249 249 249 248 248 246 244 244 245 246 247 249 252 253 253 253 253 252 252 253 254 253 253 253 253 253 253 253 254 256 260 263 266 266 267 268 270 270 270 270 269 270 270 271 270 271 270 269 266 271 271 269 265 268
253 252 252 252 251 250 250 246 244 247 246 245 244 244 244 244 246 247 250 252 254 251 252 252 253 252 252 253 253 253 253 252 253 253 253 252 252 252 253 253 255 261 265 264 265 268 269 268 268 269 269 269 269 269 268 267 260 259 260 261 261 264
252 252 252 251 250 250 246 245 248 248 245 244 243 243 244 244 245 247 249 250 252 252 252 252 251 251 252 253 253 253 252 253 253 252 252 253 253 253 252 253 254 255 260 265 265 268 267 267 267 267 267 267 268 267 265 257 257 257 258 259 259 260
Wind_Speed
8 8 8 6 5 4 4 3 3 3 3 4 5 5 4 4 4 4 5 5 6 6 7 8 9 9 10 10 10 11 11 14 14 11 13 13 12 14 12 14 14 15 13 12 12 14 13 13 14 12 14 13 15 16 13 12 10 11 12 12 13 14
8 8 7 6 6 4 3 3 2 3 4 4 3 3 3 5 6 5 6 6 6 8 8 9 8 9 9 10 10 11 11 13 14 15 15 13 14 11 16 14 14 13 12 12 12 14 12 13 12 13 14 12 14 13 12 11 12 13 11 13 12 12
7 6 5 5 3 2 1 2 3 4 4 3 3 5 7 6 6 6 6 7 8 9 10 10 10 11 10 11 11 11 13 12 14 13 12 14 12 14 16 15 14 15 17 15 16 14 16 15 14 12 12 14 13 12 14 13 14 14 14 13 14 14
6 5 3 3 2 2 2 3 3 4 2 3 4 4 4 6 7 6 8 7 8 10 10 10 9 10 10 12 11 13 12 12 12 11 14 13 15 14 18 21 16 13 16 15 15 15 15 13 15 13 11 13 13 18 15 15 16 14 16 11 13 14
7 7 7 6 4 3 3 4 3 2 3 3 3 4 6 5 7 6 7 8 9 10 10 10 10 10 11 12 11 12 12 13 12 12 13 14 15 18 14 16 20 21 17 17 18 18 17 17 16 12 13 12 15 15 16 14 13 15 15 16 14 14
5 5 4 4 3 3 4 3 1 2 2 3 3 5 6 6 6 7 8 9 10 10 11 10 10 12 11 12 12 14 13 12 12 12 13 17 16 15 19 18 16 19 19 20 18 18 18 18 16 17 16 15 14 14 16 15 14 12 15 16 15 15
6 7 5 5 4 3 2 1 1 2 3 2 4 4 4 6 7 7 8 8 11 11 11 12 12 12 12 12 11 13 12 12 12 13 17 15 16 19 16 17 18 18 17 19 19 18 18 17 18 18 18 16 14 13 13 14 13 12 14 15 16 15
7 5 5 4 4 3 1 1 1 3 3 3 3 4 5 7 6 7 8 9 11 12 13 12 12 12 13 14 14 15 16 14 15 17 13 16 18 17 18 17 15 17 19 19 19 19 18 18 18 18 18 18 17 16 16 16 16 15 16 16 16 16
7 7 5 4 3 2 1 1 2 3 3 3 3 4 5 6 6 8 9 10 10 11 11 11 11 12 13 13 14 14 14 17 16 14 19 14 18 18 18 19 19 17 19 20 19 19 19 18 18 18 18 18 17 17 17 16 15 16 15 16 16 15
7 5 5 4 3 2 1 1 2 2 2 4 4 5 5 6 7 8 8 9 10 10 11 11 12 13 13 13 13 17 17 14 17 19 17 18 17 18 20 19 20 19 17 19 19 18 18 18 18 18 18 17 17 16 17 17 17 16 15 14 14 14
7 6 5 4 2 2 2 2 2 2 2 3 4 4 6 6 7 9 8 9 9 10 11 12 12 12 13 13 17 17 16 19 17 17 17 16 17 17 18 19 19 20 21 20 20 19 18 17 16 14 14 15 17 16 16 17 17 17 16 14 15 15
7 6 5 3 3 2 2 2 2 2 4 5 4 5 4 6 7 8 9 9 10 10 11 12 12 12 13 15 16 16 19 16 17 17 17 18 18 18 17 18 20 21 20 20 19 18 16 15 14 18 26 24 17 15 15 14 16 16 15 15 16 15
6 5 5 4 3 3 2 1 1 3 4 4 4 5 5 6 7 7 8 9 10 11 12 12 12 13 15 14 14 14 15 16 15 15 16 16 15 16 17 17 20 23 20 19 18 18 16 15 14 26 26 26 29 21 17 16 14 13 14 15 15 14
7 6 5 4 3 3 2 1 2 2 2 4 4 5 6 6 7 8 8 10 11 11 11 12 13 13 14 14 14 14 15 15 16 16 16 15 15 16 14 19 21 18 19 16 17 17 16 16 21 27 27 27 28 26 19 16 15 14 15 16 16 14
8 7 5 4 4 4 2 1 1 2 3 4 5 6 6 7 7 8 9 9 10 11 11 12 13 14 13 14 14 14 15 15 16 17 17 17 15 15 19 18 20 18 17 17 17 17 16 16 23 27 27 26 27 27 24 16 16 16 16 17 17 15
7 6 6 5 4 3 2 1 1 1 2 4 4 5 6 6 7 8 9 10 10 11 12 12 13 13 14 14 14 15 15 15 17 17 16 17 18 17 16 17 17 18 17 15 16 16 16 17 22 27 28 27 27 27 24 17 17 16 17 18 17 15
8 8 7 5 5 3 3 1 0 2 2 4 4 4 6 6 7 8 8 10 11 11 11 12 13 13 14 15 15 15 16 16 16 18 15 15 17 17 18 17 18 17 18 17 15 14 16 15 26 28 28 27 27 26 24 17 15 15 16 17 18 17
10 9 7 5 4 3 2 1 2 2 3 3 4 4 5 5 6 8 9 10 11 11 12 13 14 14 14 15 16 16 15 16 16 17 18 17 16 16 16 17 16 17 19 19 19 17 15 17 28 28 28 27 26 26 17 16 15 15 16 17 17 17
9 7 7 6 5 4 2 1 2 2 2 3 3 4 4 5 6 7 9 10 11 12 12 12 13 15 15 15 17 17 17 17 18 18 15 17 17 17 18 17 17 16 18 19 19 18 17 17 24 29 29 27 25 21 12 14 12 13 15 16 16 14
8 7 7 7 6 4 2 1 3 3 3 3 4 4 5 5 6 8 9 10 10 12 11 12 12 14 15 15 16 18 16 15 15 15 15 16 18 18 17 17 17 17 16 19 20 18 17 16 22 31 29 27 25 19 13 13 10 12 14 14 15 13
8 8 7 7 5 3 3 3 3 3 3 3 5 4 4 5 7 9 10 10 11 11 11 12 12 13 14 16 15 16 17 17 16 15 14 14 15 16 15 16 16 17 17 16 17 25 22 17 21 29 29 28 25 18 12 12 11 12 13 13 13 13
10 8 7 6 5 4 4 3 2 2 2 2 3 3 5 6 8 8 9 11 11 11 11 11 13 13 13 15 16 15 14 14 15 15 15 14 13 14 14 15 15 18 17 17 18 16 16 17 16 19 28 25 24 23 13 9 12 11 13 13 12 11
7 7 7 5 5 3 3 3 3 3 2 2 3 4 6 7 7 8 9 10 10 11 12 11 11 14 14 13 13 14 14 13 14 15 15 15 13 14 15 17 16 17 17 16 16 15 16 14 16 18 29 29 26 25 21 10 13 13 12 11 13 11
8 8 7 5 5 4 3 3 3 3 2 3 4 4 6 6 7 8 9 10 10 11 11 12 12 11 11 12 13 14 14 13 12 12 14 12 13 15 17 17 16 17 17 14 14 15 15 14 20 18 26 29 28 25 24 15 12 15 11 14 11 12
8 7 7 5 3 4 3 3 4 3 2 3 4 5 6 6 7 8 9 9 10 10 11 12 13 13 11 12 13 14 15 14 13 14 13 13 14 15 17 19 18 17 14 14 14 12 13 15 15 22 21 27 28 29 29 21 21 23 17 13 13 13
7 8 7 5 4 3 3 4 4 3 3 3 4 5 5 5 6 8 8 8 8 10 10 11 12 11 11 12 13 12 13 14 14 13 12 13 13 13 14 14 13 12 14 16 15 13 13 14 14 18 24 23 28 29 29 27 20 25 16 14 13 11
10 8 7 6 4 3 3 3 5 3 3 3 3 4 5 7 7 8 8 9 8 9 9 10 11 11 11 11 12 13 13 14 13 13 13 13 13 13 12 14 11 12 15 15 15 16 16 15 15 14 19 28 29 28 27 26 26 22 21 18 13 13
8 9 8 5 4 3 3 3 4 5 2 2 2 3 4 5 7 7 8 8 8 9 9 10 10 11 11 11 10 11 11 12 13 12 13 12 13 14 13 11 12 15 15 14 15 16 17 17 14 15 16 19 21 22 26 28 26 23 23 21 17 19
9 8 7 6 3 3 2 3 3 3 1 2 3 3 3 4 5 6 7 8 9 8 8 9 9 11 11 11 9 8 11 11 11 12 12 13 12 11 10 11 15 14 15 14 16 16 17 15 15 15 14 10 12 13 15 16 16 20 19 14 10 17
10 9 7 6 4 3 2 2 3 2 1 1 2 3 4 4 4 6 7 9 7 7 8 8 11 11 10 11 12 11 10 11 11 12 12 12 12 10 11 9 11 13 14 13 15 15 15 14 14 14 14 15 15 14 14 14 14 13 10 11 8 7
10 8 8 6 4 3 2 2 2 2 2 2 2 3 4 5 5 5 5 6 6 7 7 7 8 8 9 10 10 10 9 10 12 12 13 13 11 13 14 13 13 11 13 12 15 16 15 14 15 15 25 22 25 21 18 15 13 12 12 12 15 8
10 9 8 5 4 3 3 2 2 1 1 1 2 2 3 4 5 5 6 5 6 6 7 7 8 8 8 8 9 11 12 13 17 14 12 12 22 28 28 26 17 18 15 14 12 14 17 18 18 32 34 32 30 29 27 24 25 24 19 18 21 12
8 8 7 6 4 3 3 2 1 1 1 1 2 2 3 3 4 4 4 6 5 7 7 7 7 8 8 8 9 9 10 13 13 15 20 22 24 25 27 29 30 31 31 21 16 18 28 30 33 34 34 33 32 31 30 28 28 30 14 22 11 11
8 9 8 6 4 3 3 2 1 0 0 0 1 1 2 3 2 3 4 5 6 7 7 6 7 7 8 9 9 9 10 11 13 15 16 21 22 25 25 27 30 32 31 31 30 25 17 26 33 35 34 34 33 32 31 29 31 33 31 13 14 10
7 5 6 6 5 4 3 3 1 0 0 0 1 1 2 3 2 3 4 5 6 6 7 7 7 7 7 9 10 10 10 11 12 14 17 19 22 22 20 23 29 32 32 32 34 38 32 30 31 35 35 34 34 33 31 27 27 35 34 27 14 7
7 7 7 6 5 5 4 3 1 0 1 0 1 1 1 2 3 3 3 4 5 6 5 6 6 7 8 7 8 8 9 10 10 11 12 15 17 21 24 26 30 31 34 30 32 36 35 35 34 35 36 35 34 32 32 25 23 33 34 25 12 11
9 7 7 7 5 4 4 3 2 1 1 0 0 1 1 2 3 2 5 8 7 3 4 4 5 6 7 7 7 8 9 9 10 10 11 12 13 14 14 16 19 25 32 27 23 32 36 34 36 35 34 35 33 34 31 31 22 19 19 18 15 12
9 8 6 5 5 5 4 2 2 1 1 0 0 1 1 1 2 2 3 4 5 4 3 4 4 6 6 6 7 7 7 8 9 10 10 10 10 11 12 13 14 14 19 30 26 34 33 35 34 32 33 34 36 33 33 20 16 15 14 14 12 11
Wind_Direction
184 188 195 199 196 193 202 226 245 252 258 253 250 275 295 304 308 300 296 292 296 297 296 294 294 290 288 286 284 287 287 290 292 288 285 287 286 288 287 288 286 285 283 279 281 282 278 275 270 269 271 267 268 265 262 258 258 262 265 267 270 273
187 188 187 188 195 205 212 223 252 261 255 255 281 308 321 316 309 304 303 301 297 297 295 291 287 286 284 286 288 287 285 285 289 289 290 287 290 287 288 283 283 282 281 281 281 281 278 275 271 270 271 269 266 266 266 267 263 263 265 270 268 270
191 193 186 186 181 178 203 229 248 254 251 296 340 329 320 312 305 309 308 309 302 298 295 293 294 293 292 289 284 284 285 285 288 288 287 289 284 290 287 284 285 289 291 287 287 283 281 279 275 269 267 266 265 271 275 277 272 268 268 266 269 267
186 183 168 160 162 223 240 255 244 253 305 353 332 312 300 303 311 315 311 307 300 295 295 295 295 294 295 295 293 291 289 288 289 288 292 288 290 291 294 294 289 285 287 286 287 285 280 272 270 267 265 265 268 270 268 266 267 267 267 268 270 274
181 180 175 182 189 211 229 242 248 307 349 336 305 299 298 305 307 311 305 299 299 299 300 301 301 301 299 297 294 291 292 293 292 292 291 293 297 298 294 293 294 296 293 288 287 288 285 285 281 275 265 258 260 261 264 261 260 258 262 266 264 267
169 158 165 186 206 218 236 244 331 344 318 295 289 293 305 312 311 305 301 299 300 303 304 304 304 304 303 303 302 300 299 297 297 297 294 300 299 297 298 296 294 294 293 289 286 286 284 284 283 281 277 268 258 257 260 260 256 254 258 261 265 266
165 183 183 192 203 219 230 280 334 290 282 284 289 296 308 307 303 301 300 304 308 309 310 307 309 307 305 302 300 300 300 301 301 301 304 303 302 299 299 299 296 292 291 289 286 287 284 284 283 281 280 279 273 270 274 276 277 272 266 263 264 265
180 177 185 188 200 203 215 260 252 270 272 283 296 304 310 300 298 301 310 313 313 308 304 305 308 309 309 308 306 308 307 306 307 307 305 305 299 300 296 294 295 293 290 291 287 284 283 282 282 279 276 273 272 271 271 269 267 267 267 265 261 258
185 190 180 186 192 186 188 216 255 267 279 295 304 300 298 300 306 315 314 311 306 304 304 305 304 304 302 306 307 307 309 308 307 307 305 304 300 299 299 296 293 294 291 286 287 282 280 280 278 277 275 272 270 269 268 268 261 260 259 257 257 256
182 178 184 184 187 172 199 224 247 263 286 304 304 300 302 313 320 316 313 311 307 303 303 305 305 305 306 306 309 312 309 307 309 304 305 301 300 299 297 297 295 293 292 289 285 283 280 276 276 273 271 268 266 266 267 268 267 262 256 254 254 255
181 179 178 179 158 188 224 244 252 273 294 286 290 298 311 328 325 320 314 309 305 305 304 305 308 307 306 310 313 310 310 311 306 304 301 299 298 296 295 294 292 291 291 289 283 280 276 274 271 271 267 267 264 262 261 262 262 261 263 262 260 257
170 172 166 159 170 195 228 252 264 291 290 282 289 304 316 344 325 319 316 312 308 306 308 307 306 307 311 312 311 311 311 306 306 303 301 298 295 291 289 289 295 292 288 288 285 279 275 271 269 267 266 264 264 260 258 252 253 253 252 254 256 255
166 156 154 171 176 203 219 235 269 281 278 289 308 325 337 336 321 314 317 311 310 313 312 309 309 314 314 311 308 307 307 306 305 302 298 294 288 285 286 286 294 299 288 281 281 280 274 269 264 268 267 267 265 266 267 264 261 261 259 253 252 254
166 163 171 169 183 191 200 219 252 253 272 302 329 339 333 325 320 319 315 315 313 313 313 312 313 314 312 310 305 306 308 305 304 302 300 296 292 291 284 291 291 288 289 279 276 275 273 271 267 270 273 268 267 265 264 262 264 264 263 264 259 254
166 161 155 159 174 181 182 188 242 257 310 337 341 336 327 326 323 317 313 312 313 312 317 317 316 314 310 309 308 307 308 307 305 305 303 299 296 296 299 294 294 287 286 281 278 276 272 268 272 271 273 274 268 267 264 262 258 257 256 255 257 253
141 140 151 160 163 153 139 192 186 297 347 346 340 333 328 323 314 317 314 315 317 321 320 318 315 310 310 310 311 309 308 309 306 305 303 298 299 296 295 295 286 284 278 278 279 275 273 273 270 274 273 274 273 267 265 261 258 257 256 254 252 251
139 139 148 156 151 137 160 177 355 337 358 4 344 334 324 320 315 317 318 320 322 321 320 316 315 312 313 314 312 312 309 309 309 307 309 313 315 314 312 311 309 307 299 289 280 275 275 271 276 278 279 278 275 268 264 261 258 255 252 252 251 251
152 157 154 139 133 139 139 143 14 18 15 353 338 329 321 319 319 318 325 323 322 322 320 317 314 315 316 315 315 314 311 312 313 315 318 316 316 314 311 309 305 303 302 298 292 283 277 277 281 284 285 283 278 271 263 261 259 260 260 253 248 247
124 136 136 135 132 134 122 78 48 39 17 5 340 334 326 326 327 328 327 321 318 317 317 316 316 316 316 315 315 315 316 316 321 323 323 317 317 316 315 310 306 304 301 297 294 288 281 280 284 290 289 285 280 271 262 262 258 256 254 255 253 247
121 133 135 131 122 121 120 103 63 48 30 5 348 343 336 336 332 331 325 316 316 316 315 314 315 314 314 315 315 316 315 315 317 319 320 318 317 317 315 309 304 303 301 297 294 287 280 281 285 291 292 288 280 269 259 255 254 254 258 258 253 254
134 132 124 125 137 127 124 90 73 68 39 8 354 343 338 340 333 331 325 317 316 312 311 312 312 312 312 314 314 316 316 319 320 316 317 315 312 309 309 308 306 304 302 296 294 299 297 287 287 292 293 289 283 272 253 252 249 252 252 255 257 250
125 122 128 144 143 132 111 82 82 75 54 9 347 347 343 337 332 320 318 313 311 310 310 311 310 310 312 312 313 314 316 316 316 319 318 314 312 310 308 307 304 304 304 300 294 287 296 299 290 293 297 289 280 275 260 237 246 243 248 249 258 261
129 134 144 148 137 120 99 95 89 68 54 3 4 353 339 332 324 323 318 314 310 310 309 310 309 310 311 310 311 314 314 316 317 318 318 315 312 309 308 307 307 306 302 295 292 291 301 302 305 311 315 313 300 277 265 242 241 243 241 245 244 247
123 131 132 128 124 108 104 100 93 73 54 19 5 343 331 329 327 321 316 312 311 308 308 308 309 308 309 313 317 319 317 316 316 315 316 311 311 311 309 309 311 312 305 297 304 299 301 308 320 314 312 312 314 314 271 247 241 237 242 242 241 243
146 151 133 118 108 106 105 104 88 76 56 26 354 337 331 332 326 318 314 310 307 309 309 310 313 316 318 320 321 319 317 318 321 321 317 314 315 315 312 313 310 301 299 312 303 304 315 321 317 316 314 315 319 323 329 287 246 242 239 238 243 242
146 132 121 116 116 115 103 104 93 78 55 25 353 337 334 327 324 317 312 309 307 308 312 314 314 314 319 322 322 321 319 322 323 322 321 321 320 319 307 299 300 303 319 314 311 321 327 321 319 315 318 321 319 325 322 329 306 250 236 236 240 242
143 130 121 119 114 117 105 98 96 78 55 0 360 336 337 328 323 320 309 309 309 311 311 312 314 319 323 327 326 327 327 324 327 324 325 325 328 321 306 308 298 319 319 312 321 331 329 327 323 319 322 322 322 319 321 322 321 317 274 244 234 234
123 124 120 117 127 119 117 88 87 83 35 1 348 340 332 322 318 314 308 308 312 313 314 317 319 321 324 326 328 325 322 322 325 324 322 325 327 325 310 296 327 327 319 312 331 332 328 328 325 325 322 322 316 321 321 319 318 309 306 291 243 232
125 127 132 131 136 124 100 97 81 79 50 357 338 340 327 318 308 303 309 315 315 316 319 324 327 328 327 327 329 327 325 325 323 320 323 321 318 314 301 325 335 329 321 324 337 332 330 326 329 323 315 309 319 319 315 318 309 307 306 303 250 227
132 136 137 138 142 125 112 105 94 85 64 358 342 333 333 318 307 311 313 313 314 319 320 324 330 331 327 328 330 332 332 328 323 324 326 322 320 312 320 316 327 331 323 327 336 332 330 329 328 326 327 332 329 322 317 306 301 296 293 296 276 221
137 142 138 136 136 129 127 103 98 77 46 5 347 347 339 318 317 314 311 313 323 324 323 327 330 328 327 323 325 326 328 326 324 326 318 321 320 334 338 336 334 330 333 324 342 334 334 332 331 331 336 335 333 329 321 312 303 290 283 275 279 245
138 143 139 136 136 137 128 114 93 69 36 11 345 348 329 317 319 321 322 325 325 317 323 332 329 328 326 324 323 326 323 326 336 329 326 323 337 343 348 353 347 347 342 340 347 343 343 336 333 336 340 340 340 338 332 324 318 299 267 262 262 261
136 132 134 140 142 136 136 116 99 107 12 21 357 326 307 312 318 319 317 329 327 321 332 327 329 328 324 324 324 327 327 326 329 336 337 336 341 344 347 353 354 353 354 356 352 349 350 344 344 346 345 346 346 346 348 348 349 354 297 242 252 243
150 150 149 148 146 149 135 121 138 156 275 38 322 301 299 305 307 314 315 315 312 318 330 329 328 326 327 327 328 333 333 332 331 328 336 343 342 345 348 355 357 354 354 358 2 0 351 351 350 352 352 352 353 354 356 358 6 9 7 341 235 230
148 136 137 143 149 146 146 138 213 183 185 291 282 299 318 306 310 307 313 309 313 318 329 335 331 331 330 328 332 336 338 338 339 337 333 335 340 345 353 357 360 357 354 358 2 4 1 358 355 357 358 358 358 360 2 2 13 20 16 20 26 353
127 137 145 149 155 152 145 153 191 170 227 241 275 327 276 285 285 286 286 300 307 317 327 331 331 331 328 323 329 332 336 335 336 334 331 335 338 345 348 354 358 356 354 355 360 4 1 1 359 1 2 2 3 4 5 7 19 19 22 27 18 14
138 142 153 155 148 150 149 183 237 225 210 221 212 5 330 305 295 294 299 304 309 305 316 322 331 327 322 325 335 337 337 333 334 334 337 339 342 341 343 338 339 349 352 354 356 5 2 2 2 3 4 5 8 11 6 23 23 11 3 7 6 3
140 147 151 148 152 152 161 209 229 212 209 172 107 66 347 311 320 316 311 305 303 312 321 332 328 326 322 331 333 333 329 331 332 338 336 333 333 337 338 334 340 334 338 349 351 5 3 3 1 3 5 11 14 14 17 23 7 12 6 4 355 355